Torna al catalogo

SL-8 DEB

AttivoLEO
NORAD 5052·DEBRIS·🇷🇺 Russia

Lanciato Mar 18, 1971 da Plesetsk Cosmodrome

Loading…

Prossimi Passaggi (prossime 24 ore)

TLE

AggiornatoSource: Space-Track

Epoca: Sep 14, 2026, 13:01 UTC

1 05052U 71020C   26257.54289649 -.00000051  00000-0  31214-4 0  9993
2 05052  65.8188 271.0556 0005953 244.8575 196.8769 13.73653886781487

Traccia SL-8 DEB in tempo reale con AllMySat

Download on the App Store